Flag for Venezuela Weather past 2 weeks in Barquisimeto, Venezuela

Now
77 °F

Passing clouds.


Feels Like: 79 °F
Forecast: 66 / 91 °F
Wind: 9 mph from Southeast

Location: Barquisimeto Airport

Current Time: Feb 26, 2015 at 8:13:49 PM

Latest Report: Feb 26, 2015 at 7:30 PM


Visibility: N/A

Pressure: 29.95 "Hg

Humidity: 65%

Dew point: 64 °F

Location of BarquisimetoLocation

Historic Weather in Barquisimeto — Graph

°F

Barquisimeto temperature yesterday

Maximum temperature yesterday: 88 °F (at 2:30 PM)
Minimum temperature yesterday: 68 °F (at 5:30 AM)
Average temperature yesterday: 78 °F

Past Weeks' High & Low Weather Summary

 TemperatureHumidityPressure
High91 °F (Feb 18, 3:30 PM)100% (Feb 11, 6:30 PM)30.09 "Hg (Feb 11, 6:30 PM)
Low36 °F (Feb 11, 6:30 PM)31% (Feb 16, 3:30 PM)29.89 "Hg (Feb 11, 6:30 PM)
Average78 °F63%30.01 "Hg
* Reported Feb 11 6:30 PM — Feb 26 6:30 PM, Barquisimeto, Weather by CustomWeather, © 2015

Note: Actual official high and low records may vary slightly from our data, if they occured in-between our weather recording intervals... More about our weather records

Advertising

Barquisimeto weather history for previous 24 hours

 ConditionsComfort  
Time TempWeatherWind HumidityBarometerVisibility
6:30 PM
Thu, Feb 26
81 °FPassing clouds.12 mph54%29.95 "HgN/A
5:30 PM84 °FScattered clouds.13 mph48%29.92 "HgN/A
4:30 PM84 °FScattered clouds.13 mph45%29.92 "HgN/A
3:30 PM82 °FPartly sunny.12 mph48%29.92 "HgN/A
2:30 PM86 °FPartly sunny.12 mph46%29.98 "HgN/A
1:30 PM84 °FPartly sunny.13 mph45%30.01 "HgN/A
12:30 PM82 °FScattered clouds.15 mph55%30.04 "HgN/A
11:30 AM82 °FScattered clouds.14 mph48%30.07 "HgN/A
10:30 AM81 °FScattered clouds.14 mph58%30.09 "HgN/A
9:30 AM75 °FPartly sunny.14 mph65%30.07 "HgN/A
8:30 AM73 °FPartly sunny.9 mph74%30.04 "HgN/A
7:30 AM70 °FPartly sunny.7 mph83%30.01 "HgN/A
6:30 AM68 °FPartly sunny.7 mph88%30.01 "HgN/A
5:30 AM68 °FPassing clouds.3 mph88%30.01 "HgN/A
1:30 AM72 °FPassing clouds.3 mph78%30.01 "HgN/A
10:30 PM
Wed, Feb 25
72 °FPassing clouds.6 mph78%30.01 "HgN/A
9:30 PM73 °FPassing clouds.6 mph74%30.01 "HgN/A
8:30 PM75 °FPassing clouds.12 mph69%29.98 "HgN/A
Weather by CustomWeather, © 2015

See weather overviewHow to use our weather pages